Terug naar catalogus

STARLINK-31247

ActiefCommunicatieVLEO
NORAD 59206·PAYLOAD·🇺🇸 United States

Gelanceerd Mar 11, 2024 vanaf Vandenberg Space Force Base

Loading…

Volgende Passages (komende 24 uur)

TLE

VersSource: CelesTrak SupGP

Epoch: Sep 15, 2026, 01:44 UTC

1 59206C 24046F   26258.07270833  .00055718  00000+0  16468-2 0  2581
2 59206  53.1599 355.2358 0001261  86.1359 183.2044 15.34350505    13

Volg STARLINK-31247 in realtime met AllMySat

Download on the App Store